This demonstration page uses our WeatherBlox Daily Observations layout. Learn more.

Left ArrowRight Arrow

Hourly Observations for June 13, 2021

Temp ( °F °C ) Dew Point ( °F °C ) Humidity (%) Winds ( mph kmh ) Pressure ( in mb ) Visibility ( mi km ) Precip ( " mm )
12:51 am 00:51 Clear 82 27.8 9 -12.8 6 6 undefined N/A 29.69 1005 10 16 N/A
1:51 am 01:51 Clear 77 25 9 -12.8 7 7 NW 7 11 29.69 1005 10 16 N/A
2:51 am 02:51 Clear 75 23.9 8 -13.3 7 7 N N/A 29.71 1006 10 16 N/A
3:51 am 03:51 Clear 75 23.9 8 -13.3 7 7 N N/A 29.71 1006 10 16 N/A
4:51 am 04:51 Clear 77 25 8 -13.3 7 7 NW 5 7 29.72 1006 10 16 N/A
5:51 am 05:51 Sunny 75 23.9 8 -13.3 7 7 N N/A 29.74 1007 10 16 N/A
6:51 am 06:51 Sunny 83 28.3 10 -12.2 6 6 N N/A 29.75 1008 10 16 N/A
7:51 am 07:51 Sunny 86 30 13 -10.6 6 6 S 3 6 29.78 1009 10 16 N/A
8:51 am 08:51 Sunny 92 33.3 13 -10.6 5 5 SSW 3 6 29.79 1009 10 16 N/A
9:51 am 09:51 Sunny 96 35.6 27 -2.8 8 8 VRB 5 7 29.78 1009 10 16 N/A
10:51 am 10:51 Sunny 101 38.3 36 2.2 10 10 S 5 7 29.77 1008 10 16 N/A
11:51 am 11:51 Sunny 104 40 36 2.2 9 9 undefined N/A 29.75 1007 10 16 N/A
12:51 pm 12:51 Sunny 108 42.2 36 2.2 8 8 VRB 5 7 29.72 1006 10 16 N/A
1:51 pm 13:51 Mostly Sunny 108 42.2 32 undefined 7 7 S 6 9 29.70 1006 10 16 N/A
2:51 pm 14:51 Cloudy 111 43.9 28 -2.2 5 5 NNE 5 7 29.67 1005 10 16 N/A
3:51 pm 15:51 Cloudy 112 44.4 29 -1.7 6 6 WNW 14 22 29.64 1004 10 16 N/A
4:51 pm 16:51 Cloudy 110 43.3 28 -2.2 6 6 NW 12 19 29.63 1003 9 14 N/A
5:51 pm 17:51 Mostly Cloudy 109 42.8 23 -5 5 5 WNW 10 17 29.64 1004 10 16 N/A
6:51 pm 18:51 Mostly Cloudy 105 40.6 19 -7.2 4 4 WNW 18 30 29.65 1004 10 16 N/A
7:51 pm 19:51 Mostly Cloudy 100 37.8 19 -7.2 5 5 WNW 12 19 29.68 1005 10 16 N/A
8:51 pm 20:51 Mostly Cloudy 95 35 16 -8.9 5 5 NW 9 15 29.71 1006 10 16 N/A
9:51 pm 21:51 Partly Cloudy 89 31.7 14 -10 6 6 NNW 10 17 29.74 1007 10 16 N/A
10:51 pm 22:51 Mostly Clear 91 32.8 16 -8.9 6 6 NNW 10 17 29.74 1007 10 16 N/A
11:51 pm 23:51 Partly Cloudy 92 33.3 15 -9.4 6 6 NNW 9 15 29.74 1007 10 16 N/A

Powered by AerisWeather